User: anonymous
Location: Fort Frances
(48.6170°N, 93.4170°W)
Time: 00:36:13
(UTC-05:00)
Language:

CZ-2C R/B - Orbit

View from above orbital plane
View from above orbital plane
View from above satellite
View from above satellite

Ground track
Ground track

The orbit data is extracted from the following two-line orbital elements,

1 36089U 09061B   14203.10007252  .00000052  00000-0  24265-4 0  3803
2 36089 098.1038 234.6621 0083741 072.2376 349.1583 14.49190158247997
Epoch (UTC): 22 July 2014 02:24:06
Eccentricity: 0.0083741
inclination: 98.1038°
perigee height: 669 km
apogee height: 788 km
right ascension of ascending node: 234.6621°
argument of perigee: 72.2376°
revolutions per day: 14.49190158
mean anomaly at epoch: 349.1583°
orbit number at epoch: 24799

The dashed part of the orbit path shows where the satellite is in the earth's shadow,  

DLR